This is the latest recevied weather packets stored in our database for station/object KN6ZYR. If no packets are shown the sender has not sent any weather packets the latest 10 day(s).
| Time | Temp. | Humidity | Pressure | Rain* | Wind** | Luminosity | Snow |
|---|---|---|---|---|---|---|---|
| 1777447152 | 6.11° C | 72% | 1024.6 hPa | 0 mm | - | 0 W/m² | - |
| 1777446852 | 6.11° C | 71% | 1024.4 hPa | 0 mm | - | 0 W/m² | - |
| 1777446548 | 6.11° C | 71% | 1024.8 hPa | 0 mm | - | 0 W/m² | - |
| 1777446244 | 6.67° C | 71% | 1024.4 hPa | 0 mm | - | 0 W/m² | - |
| 1777445942 | 6.11° C | 73% | 1024.7 hPa | 0 mm | - | 0 W/m² | - |
| 1777445642 | 6.11° C | 73% | 1024.8 hPa | 0 mm | - | 0 W/m² | - |
| 1777445338 | 6.11° C | 73% | 1024.7 hPa | 0 mm | - | 0 W/m² | - |
| 1777445034 | 6.11° C | 71% | 1024.9 hPa | 0 mm | - | 0 W/m² | - |
| 1777444730 | 6.67° C | 67% | 1024.9 hPa | 0 mm | - | 0 W/m² | - |
| 1777444427 | 7.22° C | 66% | 1024.9 hPa | 0 mm | - | 0 W/m² | - |
| 1777444124 | 7.22° C | 65% | 1024.8 hPa | 0 mm | - | 0 W/m² | - |
| 1777443820 | 6.67° C | 66% | 1024.9 hPa | 0 mm | - | 0 W/m² | - |
| 1777443515 | 6.67° C | 70% | 1025 hPa | 0 mm | - | 0 W/m² | - |
| 1777443212 | 7.22° C | 71% | 1025 hPa | 0 mm | - | 0 W/m² | - |
| 1777442909 | 7.78° C | 70% | 1024.9 hPa | 0 mm | - | 0 W/m² | - |
| 1777442605 | 7.22° C | 72% | 1024.7 hPa | 0 mm | - | 0 W/m² | - |
| 1777442301 | 7.22° C | 73% | 1025 hPa | 0 mm | - | 0 W/m² | - |
| 1777441998 | 7.22° C | 73% | 1024.7 hPa | 0 mm | - | 0 W/m² | - |
| 1777441693 | 7.22° C | 72% | 1024.8 hPa | 0 mm | - | 0 W/m² | - |
| 1777441389 | 7.22° C | 73% | 1024.9 hPa | 0 mm | - | 0 W/m² | - |
| 1777441083 | 7.22° C | 72% | 1024.6 hPa | 0 mm | - | 0 W/m² | - |
| 1777440781 | 7.78° C | 71% | 1024.6 hPa | 0 mm | - | 0 W/m² | - |
| 1777440475 | 7.78° C | 71% | 1024.6 hPa | 0 mm | - | 0 W/m² | - |
| 1777440171 | 7.78° C | 71% | 1024.9 hPa | 0 mm | - | 0 W/m² | - |
| 1777439868 | 7.78° C | 70% | 1024.6 hPa | 0 mm | - | 0 W/m² | - |
* Rain latest hour (hover to see other rain measurements)
** Current wind speed in m/s (hover to see current wind gust speed)